Regional Weather Roundup
Issued by NWS

Home | Current Version | Previous Version | Text Only | Print | Product List | Glossary Off
Versions: 1 2 3 4 5 6 7 8 9 10 11 12 13 14 15 16 17 18 19 20 21 22 23 24 25 26 27 28 29 30 31 32 33 34 35 36 37 38 39 40 41 42 43 44 45 46 47 48 49 50

000
ASUS43 KMPX 240710
RWRMN
WEATHER ROUNDUP FOR MINNESOTA
NATIONAL WEATHER SERVICE TWIN CITIES/CHANHASSEN MN
200 AM CDT THU AUG 24 2017


NOTE: "FAIR" INDICATES FEW OR NO CLOUDS BELOW 12,000 FEET WITH NO
SIGNIFICANT WEATHER AND/OR OBSTRUCTIONS TO VISIBILITY. N/A MEANS
CURRENT SKY AND/OR WEATHER CONDITIONS ARE NOT AVAILABLE.

MNZ060>063-068>070-240800-
   Twin Cities Metro

CITY           SKY/WX    TMP DP  RH WIND       PRES   REMARKS
TWIN CITIES    CLOUDY    64  52  64 NE14      30.10S
ST PAUL        CLOUDY    61  55  81 NE13      30.13R
CRYSTAL        CLOUDY    60  50  69 NE7       30.10F
BLAINE         PTCLDY    59  57  94 E6        30.11F
LAKEVILLE      CLOUDY    55  55 100 CALM      30.10R
EDEN PRAIRIE   CLOUDY    64  53  67 NE9       30.08S
SOUTH ST PAUL  CLOUDY    63  53  69 NE9       30.12S
LAKE ELMO      CLOUDY    59  55  88 N5        30.15S
$$
MNZ001>005-007-008-013>017-022>024-027-028-240800-
   Northwest Minnesota

CITY           SKY/WX    TMP DP  RH WIND       PRES   REMARKS
BEMIDJI        MOCLDY    50  50 100 E6        30.12S
HALLOCK        PTCLDY    46  45  93 E7        30.12S
ROSEAU         FOG       39  36  87 CALM      30.14R VSB 1/4
WARROAD        CLEAR     43  39  87 CALM      30.14S FOG
THIEF RVR FALL MOCLDY    51  48  89 E7        30.12S
CROOKSTON      CLEAR     54  52  94 E5        30.10S
FOSSTON          N/A     52  50  93 CALM      30.11F
DETROIT LAKES  PTCLDY    54  52  94 SE7       30.10S
MOORHEAD       PTCLDY    57  54  88 E8        30.07R
PARK RAPIDS    CLOUDY    56  54  93 CALM      30.11S
MAHNOMEN       PTSUNNY   52  51  94 CALM      30.10R
$$
MNZ006-009>011-018-025>026-240800-
   North Central Minnesota

CITY           SKY/WX    TMP DP  RH WIND       PRES   REMARKS
BAUDETTE       CLEAR     46  46 100 E3        30.14R
FLAG ISLAND      N/A     55  46  71 CALM      30.12S
INTL FALLS     CLEAR     37  35  92 CALM      30.13S FOG
WASKISH        FOG       45  43  93 CALM      30.13S VSB 1/4
BIG FORK       FOG       43  41  93 CALM      30.13S VSB 1/2
LONGVILLE      CLOUDY    52  50  93 CALM      30.12R
GRAND RAPIDS   FOG       48  46  93 CALM      30.14S VSB 3/4
CRANE LAKE     CLEAR     37  37 100 CALM      30.15S
ORR            CLEAR     45  41  87 CALM      30.12R
COOK           CLEAR     43  43 100 CALM      30.14R
WALKER         CLOUDY    53  52  99 CALM      30.12S
$$
MNZ012-019>021-037-240800-
   Northeast Minnesota

CITY           SKY/WX    TMP DP  RH WIND       PRES   REMARKS
DULUTH         MOCLDY    52  52 100 CALM      30.11R
ELY            CLEAR     41  39  93 CALM      30.14R
HIBBING        CLEAR     44  44 100 CALM      30.12R FOG
EVELETH        CLEAR    N/A N/A N/A CALM      30.14R
DULUTH HARBOR  CLOUDY    57  54  88 CALM      30.11S
TWO HARBORS    CLEAR     54  46  76 N5        30.10R
SILVER BAY     CLEAR     45  45 100 CALM      30.11
GRAND MARAIS     N/A     52  38  58 N7        30.11R
G MARAIS ARPRT CLEAR     37  34  87 N3        30.13S
$$
MNZ029>031-032-039>041-046>048-054>057-064-240800-
   West Central Minnesota

CITY           SKY/WX    TMP DP  RH WIND       PRES   REMARKS
FERGUS FALLS   CLOUDY    57  54  88 E6        30.07S
WHEATON        PTCLDY    59  52  77 E14       30.07S
MORRIS         CLEAR     59  52  77 E17       30.06S
ALEXANDRIA     HVY RAIN  57  52  83 SE9       30.10S
ELBOW LAKE     CLOUDY    60  52  74 NE9       30.09R
WADENA         MOCLDY    52  52 100 E6        30.09F
GLENWOOD       PTCLDY    55  52  88 E6        30.10S
APPLETON       PTCLDY    63  54  72 E15       30.04S
BENSON         PTCLDY    61  52  72 SE10G17   30.08S
ORTONVILLE     MOCLDY    61  52  72 MISG      30.04R
MADISON        CLOUDY    63  55  77 E8        30.03S
WILLMAR        FAIR      61  54  77 E15       30.09S
$$
MNZ033>034-036-042>043-049>051-058-059-240800-
   Central Minnesota

CITY           SKY/WX    TMP DP  RH WIND       PRES   REMARKS
ST CLOUD       CLOUDY    56  53  90 E5        30.10F
SAUK CENTRE    CLOUDY    57  52  82 E6        30.10S
PAYNESVILLE    CLOUDY    58  51  76 E8        30.10F
AITKIN         FOG       50  48  93 CALM      30.10S VSB 1
PINE RIVER     CLOUDY    52  52 100 CALM      30.14S
BRAINERD       CLOUDY    55  53  93 CALM      30.11S
STAPLES        MOCLDY    52  52 100 CALM      30.11S
LONG PRAIRIE   FAIR      52  50  93 NE5       30.10S
LITTLE FALLS   MOCLDY    54  50  87 CALM      30.10F
LITCHFIELD     PTCLDY    61  54  77 E10       30.10S
BUFFALO        CLOUDY    60  50  70 NE9G17    30.12S
MAPLE LAKE     CLOUDY    60  53  77 E8        30.12S
HUTCHINSON     MOCLDY    61  56  84 NE8       30.10R
$$
MNZ037-044-045-052-053-240800-
   East Central Minnesota

CITY           SKY/WX    TMP DP  RH WIND       PRES   REMARKS
PRINCETON      CLOUDY    57  54  88 CALM      30.11F
MORA           LGT RAIN  54  52  94 CALM      30.13S
CAMBRIDGE      LGT RAIN  57  52  82 CALM      30.11F
RUSH CITY      LGT RAIN  54  53  95 CALM      30.11F
MOOSE LAKE       N/A     46  45  93 CALM      30.10S FOG
HINCKLEY       PTSUNNY   54  54 100 CALM      30.11F
CLOQUET        CLEAR     48  46  93 CALM      30.12R FOG
MCGREGOR       CLOUDY    50  46  87 CALM      30.12F VSB 1/4
$$
MNZ071>073-080-081-089-090-097-098-240800-
   Southwest Minnesota

CITY           SKY/WX    TMP DP  RH WIND       PRES   REMARKS
MONTEVIDEO     PTCLDY    59  54  82 SE9       30.05F
GRANITE FALLS  CLOUDY    63  55  75 E6        30.06S
CANBY          CLOUDY    60  58  92 CALM      30.05R
MARSHALL       CLOUDY    63  58  83 E9        30.04R
REDWOOD FALLS  CLOUDY    61  54  77 E7        30.05S
OLIVIA         CLOUDY    61  54  77 E6        30.06S
PIPESTONE      PTCLDY    63  59  88 SE6       30.02S
WINDOM         LGT RAIN  63  59  88 SE3       30.05S
WORTHINGTON    CLOUDY    62  60  93 NE6       30.05R
JACKSON        HVY RAIN  61  59  94 CALM      30.07R
TRACY          CLOUDY    65  61  89 E6        30.04S
SLAYTON        DRIZZLE   63  58  83 E6        30.05S
$$
MNZ065>067-074>077-082>085-091>093-240800-
   South Central Minnesota

CITY           SKY/WX    TMP DP  RH WIND       PRES   REMARKS
MANKATO        CLOUDY    60  55  83 E7        30.07S
NEW ULM        MOCLDY    61  54  77 CALM      30.06S
ST JAMES       CLOUDY    57  55  94 CALM      30.07S
FAIRMONT       CLOUDY    61  56  83 S7        30.06S
GLENCOE        CLOUDY    62  58  87 NE5       30.08S
FARIBAULT      CLOUDY    59  54  82 NE5       30.09R
OWATONNA       CLEAR     55  54  94 E8        30.08S
WASECA         PTCLDY    55  54  94 CALM      30.09R
ALBERT LEA     PTCLDY    57  55  94 CALM      30.08R
$$
MNZ078>079-086>088-094>096-240800-
   Southeast Minnesota

CITY           SKY/WX    TMP DP  RH WIND       PRES   REMARKS
ROCHESTER      CLOUDY    55  52  89 E5        30.10S
RED WING       LGT RAIN  61  52  72 NE6       30.10R
STANTON        CLOUDY    58  55  92 CALM      30.08S
DODGE CENTER   CLEAR     54  52  94 E5        30.09S
WINONA         CLOUDY    55  54  94 CALM      30.10S
AUSTIN         CLEAR     54  50  87 E3        30.08S
PRESTON        CLEAR     54  51  91 NE3       30.09F
$$
ABBREVIATIONS USED IN REMARKS
   TC - TEMPERATURES IN CELSIUS
  WCI - WIND CHILL INDEX
   HX - HEAT INDEX
  VSB - VISIBILITY
$$




USA.gov is the U.S. government's official web portal to all federal, state and local government web resources and services.